[[{"header":{"parameterUnit":"m.s-1","parameterCategory":1,"la1":30.2991,"la2":30.254,"lo1":-89.0895,"lo2":-89.0444,"dy":0.0017,"dx":0.0017,"nx":28,"ny":28,"refTime":"2024-07-08T21:00:00:Z","depth":0,"parameterNumber":2,"parameterNumberName":"U-component_of_WINDS"},"data":[0,0,0,0,0,0,0,0,0,0,0,0,0,0,0,0,0,0,0,0,0,0,0,0,0,0,0,0,0,0,0,0,0,0,0,0,0,0,0,0,0,0,0,0,0,0,0,0,0,0,0,0,0,0,0,0,0,0,-3.0491,-3.0491,0,-3.0527,-3.0528,-3.0528,-3.0517,-3.0517,-3.0516,-3.0515,-3.0551,-3.0553,-3.0554,0,0,0,0,0,0,0,0,0,0,0,0,0,-3.0411,-3.0412,-3.0491,-3.0491,-3.0492,-3.0527,-3.0528,-3.0528,-3.0517,-3.0517,-3.0516,-3.0515,-3.055,-3.0552,-3.0554,0,0,0,0,0,0,0,0,0,0,0,0,0,-3.0446,-3.0413,-3.0491,-3.0491,-3.0491,-3.0527,-3.0528,-3.0529,-3.0518,-3.0517,-3.0515,-3.0514,-3.055,-3.0552,-3.0555,-3.0593,0,0,-3.0562,-3.0563,0,0,0,0,0,0,0,0,-3.0444,-3.0449,-3.049,-3.0491,-3.0491,-3.0517,-3.0513,-3.055,-3.0518,-3.0508,-3.0515,-3.0514,-3.054,-3.0544,-3.0553,-3.0594,-3.0596,-3.0562,-3.0564,-3.0565,-3.0566,0,0,0,0,0,0,0,-3.0442,-3.0448,-3.0505,-3.0491,-3.0492,-3.0489,-3.0492,-3.052,-3.053,-3.0508,-3.0508,-3.0512,-3.054,-3.055,-3.0554,-3.0596,-3.0562,-3.0565,-3.0566,-3.0567,-3.0671,-3.0672,0,0,0,0,0,0,-3.0439,-3.0446,-3.0504,-3.0506,-3.0465,-3.0491,-3.0495,-3.051,-3.0529,-3.0531,-3.0513,-3.0512,-3.0547,-3.0551,-3.0555,-3.06,-3.0565,-3.0567,-3.0569,-3.0669,-3.0671,-3.0672,0,0,0,0,0,0,-3.0438,-3.0445,-3.0503,-3.0476,-3.0483,-3.0494,-3.051,-3.0511,-3.0521,-3.0533,-3.0535,-3.0522,-3.0546,-3.0551,-3.0583,-3.0601,-3.0568,-3.0571,-3.0668,-3.067,-3.0672,-3.0691,0,0,0,0,0,0,-3.0435,-3.0444,-3.0459,-3.0476,-3.0485,-3.0531,-3.0511,-3.0513,-3.0526,-3.0524,-3.0541,-3.0543,-3.0546,-3.058,-3.0586,-3.0604,-3.0573,-3.0666,-3.0669,-3.0671,-3.0689,-3.0694,-3.0697,0,0,0,0,0,-3.0433,-3.0462,-3.046,-3.0467,-3.0503,-3.0532,-3.0537,-3.0539,-3.0527,-3.0542,-3.055,-3.0543,-3.0599,-3.0583,-3.059,-3.0609,-3.0665,-3.0668,-3.0671,-3.0687,-3.0693,-3.0697,0,0,0,0,0,0,-3.0446,-3.0465,-3.0462,-3.0498,-3.0514,-3.053,-3.0549,-3.0545,-3.0564,-3.0561,-3.0563,-3.0567,-3.06,-3.0608,-3.059,-3.0647,-3.063,-3.0634,-3.064,-3.0645,-3.065,-3.0646,-3.0575,0,0,0,0,0,-3.0453,-3.0476,-3.0491,-3.0522,-3.053,-3.0538,-3.0551,-3.0551,-3.0567,-3.0573,-3.0583,-3.0599,-3.062,-3.0633,-3.0653,-3.0691,-3.0694,-3.0707,-3.0712,-3.0715,-3.0718,-3.0738,-3.0744,-3.0682,-3.0682,-3.0682,0,0,-3.0468,-3.0481,-3.0495,-3.0525,-3.0537,-3.0559,-3.0543,-3.0568,-3.0584,-3.0577,-3.0607,-3.0616,-3.0633,-3.0668,-3.0684,-3.0675,-3.0736,-3.0719,-3.0721,-3.0723,-3.0742,-3.0747,-3.0753,-3.0684,-3.0683,-3.0683,0,0,-3.0507,-3.052,-3.0546,-3.0559,-3.0578,-3.0583,-3.059,-3.0607,-3.0613,-3.0644,-3.0639,-3.0658,-3.0695,-3.0707,-3.0718,-3.0763,-3.0757,-3.0769,-3.0791,-3.081,-3.0815,-3.0819,-3.0834,-3.0839,-3.0773,-3.0773,-3.0773,0,-3.0523,-3.0557,-3.0561,-3.0586,-3.0599,-3.0594,-3.0621,-3.0633,-3.0657,-3.0666,-3.0657,-3.0702,-3.0714,-3.0751,-3.0762,-3.0772,-3.0778,-3.0766,-3.0814,-3.0818,-3.0822,-3.0837,-3.0842,-3.0774,-3.0774,-3.0774,-3.0774,0,-3.0576,-3.0599,-3.0619,-3.0643,-3.0658,-3.0684,-3.0691,-3.0706,-3.0706,-3.0713,-3.0744,-3.0758,-3.078,-3.079,-3.079,-3.0827,-3.0822,-3.0814,-3.0796,-3.083,-3.0843,-3.0848,-3.0776,-3.0775,-3.0775,-3.0775,0,0,-3.0622,-3.0649,-3.0655,-3.0666,-3.0687,-3.0705,-3.0731,-3.0754,-3.0766,-3.0784,-3.0805,-3.0836,-3.0829,-3.0841,-3.0843,-3.086,-3.0894,-3.085,-3.085,-3.0856,-3.0935,-3.094,-3.0946,-3.0891,-3.0892,-3.0893,-3.0933,0,-3.0662,-3.0707,-3.0712,-3.0752,-3.0774,-3.077,-3.0793,-3.0808,-3.0815,-3.0834,-3.0842,-3.0864,-3.0853,-3.0861,-3.0878,-3.0886,-3.0909,-3.0883,-3.0909,-3.091,-3.0903,-3.0953,-3.0958,-3.0996,-3.0938,-3.0939,-3.094,0,-3.0713,-3.0733,-3.0776,-3.0794,-3.0803,-3.0823,-3.0844,-3.0863,-3.088,-3.0884,-3.0899,-3.0898,-3.0924,-3.0908,-3.0943,-3.0925,-3.0937,-3.0942,-3.0944,-3.0945,-3.0926,-3.0954,-3.1008,-3.1013,-3.0948,-3.0948,-3.0947,0,-3.0741,-3.0778,-3.0809,-3.0818,-3.084,-3.0854,-3.0864,-3.088,-3.0894,-3.0912,-3.0921,-3.0943,-3.0954,-3.097,-3.0975,-3.0963,-3.101,-3.0994,-3.1014,-3.1013,-3.1022,-3.1021,-3.1077,-3.1032,-3.1032,-3.1032,-3.1032,0,-3.0784,-3.081,-3.0822,-3.084,-3.0869,-3.0874,-3.0903,-3.0912,-3.0927,-3.0946,-3.0945,-3.0964,-3.097,-3.099,-3.0994,-3.1022,-3.1028,-3.1031,-3.1031,-3.103,-3.103,-3.1036,-3.1033,-3.1033,-3.1033,-3.1033,-3.1033,0,-3.082,-3.0829,-3.0861,-3.088,-3.0885,-3.0906,-3.0922,-3.0939,-3.0947,-3.0972,-3.0978,-3.0989,-3.1012,-3.102,-3.1047,-3.105,-3.1083,-3.1082,-3.1077,-3.1077,-3.1095,-3.1093,-3.1155,-3.1163,-3.1115,-3.1115,-3.1116,0,-3.0846,-3.0866,-3.0887,-3.09,-3.0911,-3.0933,-3.0947,-3.0953,-3.0967,-3.0989,-3.1004,-3.1027,-3.1045,-3.1082,-3.1092,-3.1114,-3.1112,-3.1133,-3.1115,-3.1113,-3.1111,-3.1109,-3.111,-3.1135,-3.1136,-3.1136,-3.1137,0,-3.0891,-3.0894,-3.0914,-3.0936,-3.0953,-3.0971,-3.0988,-3.0999,-3.1007,-3.1024,-3.1047,-3.1062,-3.1091,-3.1113,-3.1135,-3.1144,-3.1142,-3.1143,-3.1148,-3.1146,-3.1142,-3.1143,-3.1084,-3.114,-3.114,-3.114,-3.114,-3.1139,-3.0921,-3.0939,-3.0956,-3.0979,-3.0993,-3.1009,-3.1026,-3.1036,-3.1056,-3.108,-3.1083,-3.1108,-3.1125,-3.1154,-3.1165,-3.1185,-3.1179,-3.1187,-3.1188,-3.119,-3.1191,-3.114,-3.1189,-3.1189,-3.1189,-3.1189,-3.1188,0,-3.0965,-3.0976,-3.0997,-3.1021,-3.1039,-3.1036,-3.1055,-3.107,-3.1092,-3.1109,-3.1127,-3.1155,-3.1177,-3.1189,-3.1211,-3.1225,-3.1224,-3.123,-3.1228,-3.123,-3.1195,-3.1188,-3.123,-3.123,-3.123,-3.123,-3.123,-3.123,-3.099,-3.1019,-3.1025,-3.1061,-3.1072,-3.1097,-3.1108,-3.1123,-3.1136,-3.1166,-3.1185,-3.1193,-3.1208,-3.1231,-3.1251,-3.1254,-3.1262,-3.1268,-3.127,-3.1237,-3.1233,-3.1229,-3.1222,-3.127,-3.127,-3.1303,-3.1304,-3.1304]},{"header":{"parameterUnit":"m.s-1","parameterCategory":1,"la1":30.2991,"la2":30.254,"lo1":-89.0895,"lo2":-89.0444,"dy":0.0017,"dx":0.0017,"nx":28,"ny":28,"refTime":"2024-07-08T21:00:00:Z","depth":0,"parameterNumber":3,"parameterNumberName":"V-component_of_WINDS"},"data":[0,0,0,0,0,0,0,0,0,0,0,0,0,0,0,0,0,0,0,0,0,0,0,0,0,0,0,0,0,0,0,0,0,0,0,0,0,0,0,0,0,0,0,0,0,0,0,0,0,0,0,0,0,0,0,0,0,0,5.1622,5.1622,0,5.1607,5.1607,5.1606,5.1537,5.1536,5.1534,5.1533,5.1518,5.1519,5.152,0,0,0,0,0,0,0,0,0,0,0,0,0,5.1594,5.1595,5.1622,5.1622,5.1622,5.1607,5.1607,5.1606,5.1538,5.1536,5.1534,5.1532,5.1517,5.1518,5.152,0,0,0,0,0,0,0,0,0,0,0,0,0,5.1595,5.1595,5.1623,5.1586,5.1583,5.1607,5.1607,5.1606,5.1538,5.1536,5.1533,5.1531,5.1517,5.1518,5.152,5.1579,0,0,5.1525,5.1526,0,0,0,0,0,0,0,0,5.1595,5.1596,5.1592,5.1589,5.1585,5.1572,5.1591,5.1597,5.1539,5.1555,5.1533,5.153,5.1538,5.1537,5.154,5.1578,5.1577,5.1525,5.1526,5.1527,5.1527,0,0,0,0,0,0,0,5.1595,5.1597,5.1616,5.1592,5.1587,5.1571,5.1568,5.1592,5.156,5.1553,5.1548,5.1547,5.1535,5.1538,5.1539,5.1577,5.1525,5.1527,5.1528,5.1528,5.1663,5.1666,0,0,0,0,0,0,5.16,5.1597,5.1617,5.1616,5.1584,5.1573,5.157,5.1578,5.156,5.1554,5.155,5.1544,5.1537,5.1537,5.1538,5.1606,5.1527,5.1528,5.1529,5.1661,5.1664,5.1667,0,0,0,0,0,0,5.16,5.1603,5.1617,5.1605,5.1606,5.1576,5.1586,5.1579,5.1582,5.1557,5.1551,5.1558,5.1535,5.1536,5.1569,5.1604,5.1529,5.1531,5.1658,5.1662,5.1665,5.1741,0,0,0,0,0,0,5.1599,5.1603,5.1625,5.1606,5.1607,5.1649,5.1588,5.1581,5.1585,5.1578,5.1563,5.1559,5.1533,5.1567,5.1571,5.1605,5.1532,5.1654,5.1659,5.1664,5.1736,5.1747,5.1757,0,0,0,0,0,5.1599,5.1647,5.1626,5.1629,5.1633,5.1651,5.1651,5.162,5.1588,5.161,5.1594,5.1559,5.16,5.1571,5.1575,5.161,5.1652,5.1658,5.1664,5.1731,5.1745,5.1757,0,0,0,0,0,0,5.167,5.1643,5.162,5.1664,5.166,5.1639,5.1665,5.1636,5.1642,5.1635,5.1597,5.1594,5.1633,5.1625,5.1593,5.1666,5.162,5.1627,5.167,5.1683,5.1694,5.1695,5.1533,0,0,0,0,0,5.1691,5.1707,5.1683,5.1724,5.1723,5.1695,5.1701,5.1678,5.1673,5.1671,5.1657,5.1653,5.1665,5.1674,5.1684,5.1734,5.173,5.1761,5.1772,5.1781,5.1787,5.1814,5.1827,5.1686,5.1686,5.1686,0,0,5.1733,5.1721,5.1734,5.1738,5.1732,5.175,5.1694,5.1715,5.1728,5.1674,5.1704,5.1695,5.1688,5.1731,5.1749,5.1725,5.1825,5.1788,5.1796,5.1797,5.1821,5.1834,5.1846,5.169,5.1689,5.1688,0,0,5.1821,5.1813,5.1846,5.1842,5.1834,5.1815,5.1824,5.1807,5.1798,5.1829,5.1789,5.1804,5.1825,5.1823,5.1824,5.1912,5.1881,5.1917,5.1973,5.2,5.2011,5.2021,5.2052,5.2064,5.1923,5.1923,5.1923,0,5.1875,5.19,5.1867,5.1891,5.1894,5.1846,5.188,5.1878,5.1874,5.1877,5.1851,5.1877,5.1869,5.1911,5.1933,5.1935,5.1944,5.1917,5.2012,5.2022,5.203,5.206,5.2072,5.1927,5.1927,5.1927,5.1926,0,5.1968,5.1986,5.2014,5.2011,5.2018,5.2047,5.2018,5.2029,5.2006,5.199,5.2022,5.2011,5.2018,5.2026,5.2003,5.2065,5.205,5.2019,5.1972,5.2048,5.2076,5.2087,5.1934,5.1932,5.1931,5.193,0,0,5.2098,5.2078,5.2088,5.2087,5.2076,5.2089,5.2117,5.2123,5.2133,5.2133,5.2155,5.2175,5.2146,5.2148,5.2124,5.2148,5.2219,5.2113,5.2113,5.2133,5.2286,5.231,5.2323,5.2198,5.22,5.2202,5.2286,0,5.2182,5.2226,5.2198,5.2247,5.2264,5.222,5.2243,5.2239,5.2226,5.2238,5.2223,5.2238,5.2199,5.2199,5.2221,5.2206,5.2249,5.2199,5.2218,5.222,5.2221,5.2337,5.2362,5.2443,5.2297,5.2299,5.23,0,5.2284,5.2289,5.234,5.2326,5.2332,5.2354,5.2358,5.2371,5.2366,5.2354,5.2357,5.2328,5.2354,5.2309,5.2345,5.2312,5.2318,5.2312,5.2315,5.2315,5.2264,5.2341,5.2467,5.248,5.2316,5.2315,5.2314,0,5.2375,5.2393,5.2426,5.2426,5.2411,5.2427,5.2422,5.2414,5.2421,5.2425,5.2428,5.2436,5.244,5.2446,5.2421,5.239,5.246,5.2412,5.2452,5.2452,5.2468,5.2467,5.2597,5.2473,5.2473,5.2472,5.2472,0,5.247,5.2504,5.2466,5.2487,5.2523,5.249,5.2527,5.2517,5.2511,5.2529,5.2491,5.2509,5.2474,5.2488,5.2469,5.2502,5.2504,5.2495,5.249,5.2499,5.25,5.2502,5.2496,5.2476,5.2475,5.2474,5.2474,0,5.2577,5.2553,5.2587,5.257,5.2566,5.2594,5.2579,5.2598,5.2582,5.2605,5.2609,5.2584,5.26,5.2575,5.2587,5.2574,5.262,5.2605,5.2621,5.2617,5.2658,5.2654,5.2794,5.281,5.2676,5.2677,5.2678,0,5.2639,5.2664,5.265,5.2659,5.2656,5.2671,5.2678,5.2647,5.2655,5.2652,5.2671,5.2683,5.2691,5.2717,5.2701,5.271,5.2696,5.2744,5.2697,5.2705,5.2696,5.2695,5.2698,5.2754,5.2755,5.2757,5.2758,0,5.2753,5.274,5.2751,5.2758,5.2766,5.277,5.2771,5.2781,5.2749,5.276,5.2775,5.2781,5.2794,5.2807,5.2812,5.2807,5.2777,5.2773,5.2782,5.2791,5.28,5.2796,5.2647,5.2769,5.2768,5.2767,5.2767,5.2766,5.2839,5.2859,5.2853,5.2866,5.2863,5.2866,5.2882,5.2869,5.2881,5.2889,5.287,5.289,5.2885,5.2889,5.2887,5.2903,5.2882,5.2895,5.2899,5.2903,5.2909,5.2798,5.2904,5.2903,5.2903,5.2903,5.2902,0,5.2951,5.2945,5.2957,5.296,5.2971,5.2942,5.2942,5.2953,5.2971,5.2969,5.2978,5.2995,5.3008,5.2993,5.3002,5.3018,5.3005,5.3021,5.302,5.3019,5.2928,5.2918,5.3032,5.3032,5.3032,5.3032,5.3032,5.3032,5.301,5.3042,5.3029,5.3061,5.3054,5.3073,5.3076,5.3078,5.3076,5.3098,5.3108,5.3098,5.3091,5.31,5.311,5.3106,5.3111,5.3133,5.3123,5.3038,5.3025,5.3013,5.3004,5.3134,5.3134,5.3213,5.3214,5.3215]}]]